Location: Rainwater Observatory
(33.2833°N, 89.3833°W)
Time: 22:38:13
(UTC-05:00)

Daily predictions for brighter satellites

Satellite Brightness Start Highest point End
(mag) Time Altitude Azimuth Time Altitude Azimuth Time Altitude Azimuth
NOSS 3-2 (A) 3.6 19:02:19 10° S 19:08:03 51° ESE 19:14:12 10° NE
Cosmos 2333 Rocket 3.1 19:03:17 10° SW 19:08:55 55° WNW 19:14:35 10° NNE
Cosmos 292 Rocket 3.9 19:04:34 10° SSW 19:09:20 86° WNW 19:14:10 10° NNE
CZ-2C R/B 3.6 19:04:31 10° S 19:09:24 50° W 19:14:09 10° NNW
USA 238 DEB 4.4 19:05:56 10° SW 19:12:53 61° WNW 19:19:51 10° NNE
USA 238 4.4 19:06:01 10° SW 19:12:59 61° WNW 19:19:58 10° NNE
Okean 3 Rocket 4.2 19:09:06 10° NNE 19:13:20 37° E 19:17:31 10° SSE
Yuri Rocket 4.5 19:10:01 10° WSW 19:13:51 29° SSW 19:17:27 10° SE
Cosmos 1484 Rocket 2.7 19:12:56 10° SSE 19:16:42 85° E 19:20:35 10° N
SL-19 R/B 4.3 19:11:35 10° SSE 19:17:04 65° ENE 19:22:48 10° N
Atlas Centaur 2 3.3 19:12:33 10° W 19:21:06 70° S 19:28:59 10° ESE
Cosmos 1844 4.3 19:18:57 10° NNW 19:24:26 60° WSW 19:29:52 10° S
ATLAS CENTAUR R/B 1.9 19:21:00 10° NNW 19:24:51 36° NE 19:28:25 10° SE
BREEZE-M DEB (TANK) 4.0 19:21:14 10° NW 19:24:53 69° NE 19:37:28 10° SE
GPS 2-04 Rocket1 4.2 19:23:09 10° S 19:25:31 17° SSE 19:27:40 11° ESE
Abrixas rocket 3.3 19:25:30 10° WNW 19:28:44 44° SW 19:31:54 10° SSE
ALOS 3.7 19:26:21 10° ESE 19:29:30 18° ENE 19:32:39 10° NNE
Cosmos 1844 Rocket 4.4 19:28:06 10° NW 19:33:09 36° WSW 19:38:11 10° SSW
ASTRO E2 2.9 19:31:55 10° WSW 19:35:54 60° S 19:38:55 16° E
Cosmos 1766 3.2 19:32:06 10° S 19:36:00 69° E 19:39:57 10° NNE
Cosmos 1437 2.6 19:33:18 10° N 19:36:35 74° E 19:39:50 10° SSE
FREGAT/IRIS 2.7 19:34:03 10° SSE 19:37:04 55° ENE 19:40:07 10° N
Spot 2 Rocket 3.8 19:32:30 10° SE 19:37:14 43° ENE 19:41:59 10° N
Cosmos 2237 Rocket 3.9 19:32:11 10° SW 19:37:25 37° WNW 19:42:41 10° N
Cosmos 2346 Rocket 4.5 19:33:23 10° N 19:39:28 89° W 19:45:30 10° S
NOAA 12 4.0 19:34:38 10° SSE 19:39:50 74° ENE 19:45:06 10° N
OAO 3 Rocket 3.2 19:37:33 10° W 19:42:19 86° NNW 19:46:05 17° ENE
Cosmos 2056 Rocket 3.6 19:38:05 10° N 19:43:30 66° ENE 19:48:51 10° SSE
NOSS 3-2 (C) 3.4 19:39:00 10° SSW 19:44:57 79° ESE 19:51:24 10° NNE
Helios 1A 3.3 19:41:25 10° SE 19:45:21 42° ENE 19:49:19 10° N
CZ-4C R/B 4.2 19:42:06 10° WSW 19:46:36 27° NW 19:51:31 10° N
CENTAUR R/B 3.6 19:44:55 10° SSE 19:48:43 18° ESE 19:48:51 18° ESE
Milstar 3 4.5 19:39:13 10° W 19:49:16 72° S 20:04:47 19° E
ATLAS 5 CENTAUR R/B 1.7 19:44:39 10° SSW 19:49:17 67° ESE 19:54:15 10° NE
Cosmos 1953 2.5 19:48:40 10° SSE 19:52:28 45° E 19:56:17 10° NNE
Cosmos 1371 Rocket 4.3 19:47:42 10° NNW 19:53:00 73° WSW 19:58:18 10° S
ASTEX 1 4.1 19:50:07 10° NNE 19:54:23 29° E 19:58:37 10° SSE
SL-16 R/B 2.7 19:50:17 10° SSW 19:55:54 63° WNW 20:01:33 10° NNE
Aureole 2 Rocket 4.0 19:53:47 10° SSW 19:58:02 50° WNW 20:02:17 10° N
Cosmos 2034 Rocket 3.9 19:54:23 10° S 20:00:33 68° E 20:06:49 10° NNE
Cosmos 1464 Rocket 4.1 19:57:29 10° S 20:03:46 82° W 20:10:00 10° N
Cosmos 1766 Rocket 3.4 20:04:37 10° N 20:08:58 65° E 20:12:50 13° SSE
Cosmos 1805 3.1 20:05:35 10° S 20:09:28 77° E 20:13:25 10° N
HJ-1C 3.6 20:06:43 10° S 20:10:02 68° W 20:13:24 10° NNW
Cosmos 724 4.2 20:05:47 10° SSW 20:11:37 74° ESE 20:17:39 10° NNE
H-2A R/B 3.4 20:12:11 36° ENE 20:12:11 36° ENE 20:15:33 10° N
SL-8 R/B 3.7 20:13:02 10° SW 20:17:43 60° SE 20:19:07 41° E
Meteor 1-29 4.0 20:15:33 10° N 20:18:56 48° WNW 20:22:18 10° SSW
USA 215 4.5 20:19:05 10° NNE 20:25:02 39° NW 20:30:58 10° WSW
Cosmos 1544 2.9 20:21:24 10° S 20:25:07 81° E 20:28:52 10° N
Cosmos 2278 Rocket 4.2 20:20:47 10° NW 20:25:28 27° WSW 20:30:09 10° SSW
FENGYUN 3A 3.5 20:25:39 21° SSE 20:29:17 78° ENE 20:34:40 10° N
Cosmos 2297 4.2 20:23:54 10° NNW 20:29:26 57° WSW 20:34:55 10° S
Cosmos-2242 3.4 20:26:11 10° SSW 20:30:28 65° W 20:34:50 10° N
Timation 1 Rocket 4.3 20:24:44 10° NNW 20:30:42 85° WSW 20:34:28 24° SSE
Cosmos 1076 Rocket 4.3 20:26:53 10° NNW 20:31:05 51° W 20:35:17 10° SSW
Cosmos 1758 4.3 20:29:19 10° SSW 20:33:14 48° W 20:37:12 10° N
Cosmos 1452 Rocket 3.4 20:35:00 10° NNW 20:40:17 89° WSW 20:41:52 47° SSE
ISS -0.4 20:38:14 10° SSW 20:38:16 10° SSW 20:38:16 10° SSW
OAO 1 Rocket 4.4 20:37:10 10° W 20:42:32 78° N 20:43:21 63° ENE
Cosmos 1603 4.0 20:37:15 10° SSW 20:42:56 70° WNW 20:48:41 10° NNE
Resurs 01 Rocket 3.3 20:39:55 10° SSW 20:43:53 32° W 20:47:53 10° NW
SeaSat 1 2.5 20:39:15 10° NNE 20:44:11 75° WNW 20:49:05 10° SSW
Cosmos 2369 Rocket 3.8 20:40:54 10° N 20:43:36 20° NNE 20:43:36 20° NNE
SEDSat Delta rocket 3.9 20:42:20 10° W 20:49:09 77° S 20:50:22 61° ESE
ATLAS CENTAUR R/B 4.1 21:01:33 10° WNW 21:03:26 13° WSW 21:05:11 10° SW
Cosmos 1420 Rocket 4.3 20:59:01 10° NNW 21:03:18 59° N 21:03:18 59° N
ALOS 3.6 21:04:35 25° SW 21:06:36 36° W 21:10:55 10° NNW
BREEZE-M DEB (TANK) 4.3 20:47:55 10° SSW 21:08:22 60° SE 21:08:58 58° ESE
Atlas Centaur 2 3.4 21:02:50 10° W 21:10:38 44° SSW 21:11:38 42° S
Cosmos 1092 Rocket 4.3 21:19:08 10° NNW 21:25:14 61° W 21:25:38 60° WSW
CENTAUR R/B 3.5 21:32:42 10° SW 21:47:41 - NNE 21:36:16 37° WSW
